Weather History for PAOR - October, 2012

Change the Weather History Date:

Friday, October 5, 2012

  Actual Average Record
Temperature  
Mean Temperature 42 °F -  
Max Temperature 57 °F 39 °F 57 °F (2012)
Min Temperature 28 °F 20 °F -2 °F (1996)
Degree Days  
Heating Degree Days 22    
Moisture  
Dew Point 33 °F    
Average Humidity 74    
Maximum Humidity 96    
Minimum Humidity 49    
Precipitation  
Precipitation 0.00 in - - ()
Sea Level Pressure  
Sea Level Pressure 30.16 in    
Wind  
Wind Speed 2 mph (NNW)    
Max Wind Speed 6 mph    
Max Gust Speed -    
Visibility 10 miles    
Events      
Averages and records for this station are not official NWS values.
T = Trace of Precipitation, MM = Missing Value Source: NWS Daily Summary

Daily Weather History Graph

Daily Weather History Graph

Search for Another Location

Airport or City:

Trip Planner

Search our weather history database for the weather conditions in past years. The results will help you decide how hot, cold, wet, or windy it might be!

Date:

Astronomy

Oct. 05, 2012 Rise Set
Actual Time 7:48 AM AKDT 6:41 PM AKDT
Civil Twilight 7:02 AM AKDT 7:27 PM AKDT
Nautical Twilight 6:09 AM AKDT 8:20 PM AKDT
Astronomical Twilight 5:13 AM AKDT 9:16 PM AKDT
Moon 8:30 PM AKDT (10/5) 2:46 PM AKDT (10/5)
Length of Visible Light 12h 24m
Length of Day
10h 53m
Waning Gibbous, 73% of the Moon is Illuminated
Oct 5
Waning Gibbous
Oct 7
Last Quarter
Oct 15
New
Oct 21
First Quarter
Oct 29
Full

Hourly Weather History & Observations

Time (AKDT) Temp. Windchill Dew Point Humidity Pressure Visibility Wind Dir Wind Speed Gust Speed Precip Events Conditions
12:53 AM 37.0 °F 34.5 °F 30.0 °F 76% 30.14 in 10.0 mi South 3.5 mph - N/A   Mostly Cloudy
1:53 AM 39.0 °F - 30.9 °F 73% 30.14 in 10.0 mi Calm Calm - N/A   Mostly Cloudy
2:53 AM 37.0 °F - 30.0 °F 76% 30.17 in 10.0 mi Calm Calm - N/A   Mostly Cloudy
3:53 AM 34.0 °F - 28.9 °F 82% 30.18 in 10.0 mi Calm Calm - N/A   Mostly Cloudy
4:53 AM 32.0 °F 28.7 °F 28.0 °F 85% 30.19 in 10.0 mi ESE 3.5 mph - N/A   Mostly Cloudy
5:53 AM 30.9 °F - 28.9 °F 92% 30.20 in 10.0 mi Calm Calm - N/A   Mostly Cloudy
6:53 AM 30.0 °F - 28.0 °F 92% 30.21 in 10.0 mi Calm Calm - N/A   Mostly Cloudy
7:53 AM 28.9 °F - 28.0 °F 96% 30.23 in 10.0 mi Calm Calm - N/A   Mostly Cloudy
8:53 AM 30.9 °F - 28.9 °F 92% 30.24 in 10.0 mi Calm Calm - N/A   Mostly Cloudy
9:53 AM 36.0 °F 33.3 °F 30.9 °F 82% 30.24 in 10.0 mi NE 3.5 mph - N/A   Mostly Cloudy
10:53 AM 41.0 °F 39.0 °F 32.0 °F 70% 30.22 in 10.0 mi SSE 3.5 mph - N/A   Mostly Cloudy
11:53 AM 50.0 °F - 35.1 °F 57% 30.20 in 10.0 mi Calm Calm - N/A   Mostly Cloudy
12:53 PM 53.1 °F - 36.0 °F 52% 30.20 in 10.0 mi Calm Calm - N/A   Mostly Cloudy
1:53 PM 54.0 °F - 36.0 °F 51% 30.18 in 10.0 mi Calm Calm - N/A   Mostly Cloudy
2:53 PM 55.9 °F - 37.0 °F 49% 30.17 in 10.0 mi Calm Calm - N/A   Mostly Cloudy
3:53 PM 57.0 °F - 37.9 °F 49% 30.15 in 10.0 mi North 3.5 mph - N/A   Mostly Cloudy
4:53 PM 55.0 °F - 37.9 °F 53% 30.11 in 10.0 mi NNW 4.6 mph - N/A   Mostly Cloudy
5:53 PM 53.1 °F - 39.0 °F 59% 30.10 in 10.0 mi NNW 4.6 mph - N/A   Mostly Cloudy
6:53 PM 48.0 °F - 39.0 °F 71% 30.10 in 10.0 mi NW 5.8 mph - N/A   Mostly Cloudy
7:53 PM 46.9 °F - 37.9 °F 71% 30.09 in 10.0 mi WNW 4.6 mph - N/A   Scattered Clouds
8:53 PM 45.0 °F - 37.9 °F 76% 30.08 in 10.0 mi Calm Calm - N/A   Scattered Clouds
9:53 PM 39.0 °F - 36.0 °F 89% 30.09 in 10.0 mi Calm Calm - N/A   Partly Cloudy
10:53 PM 36.0 °F - 33.1 °F 89% 30.10 in 10.0 mi Calm Calm - N/A   Scattered Clouds
11:53 PM 34.0 °F - 32.0 °F 92% 30.09 in 10.0 mi Calm Calm - N/A   Scattered Clouds